Find Hai Yang 2-03

NORAD ID: 46469 Int'l Des: 2020-066 Owner: GYZ/CASC Country: CN operational
LEOCIRCULAR

实时位置

正在加载3D地球...

关于 Hai Yang 2-03

正在加载描述...

即将过境

Passes for default location (London). Set your location on the main map for personalized predictions.

高度历史

Loading altitude history...

两行轨道根数

1 46469U 20066A 26104.98013267 -.00000229 00000-0 -13371-3 0 9995
2 46469 65.9999 12.6555 0011307 244.7952 115.1944 13.83372733280754
Epoch: Apr 14, 2026 • Age: 5 hours

当前状态

高度 958.2 km
速度 7.37 km/s
星下点 -13.10°S, 92.96°E
发射日期 Sep 21, 2020
运行时间 5.5 years
类型 other

技术详情

分类 Payload
质量 1500.00 kg
干质量 1500.00 kg
总质量 1500.00 kg
长度 1.00 m
直径 1.00 m
跨度 4.00 m
形状 Box + 2 Pan
制造商 SISE
平台类型 CAST-968
阶段状态 In Orbit
所有者/国家 GYZ/CASC/CN

Most Searched